Presure
118 126 134 134 127 115 123 116 134 144 133 140 139 146 151 150 139 153 149 150 140 140 140 133 140 142 128 123 124 127 115 132 141 136 154 148 148 144 142 143 142 148 152
130 126 123 130 120 130 133 136 113 124 138 120 137 129 138 141 140 141 140 140 141 141 141 148 132 123 126 123 138 89 76 72 142 135 141 135 145 143 96 132 159 168 122
148 136 139 130 118 106 112 137 137 139 136 138 140 157 126 140 142 141 142 148 141 141 140 140 142 126 126 131 150 100 140 142 149 148 142 150 154 126 136 131 144 130 128
143 129 131 136 126 123 88 119 138 130 143 148 139 118 138 137 150 113 132 132 113 142 135 125 131 140 145 144 139 124 139 96 143 151 156 146 142 153 134 130 136 156 153
164 149 135 150 132 100 128 139 118 109 130 97 121 135 137 143 143 116 138 141 136 135 147 147 137 146 132 87 104 94 141 137 127 131 140 150 131 138 152 116 145 97 172
153 128 142 128 149 104 135 159 141 117 101 99 115 104 123 146 136 142 143 132 129 131 119 83 123 110 143 150 114 149 149 111 137 139 157 155 81 88 92 91 91 97 97
164 157 172 140 153 126 134 154 162 135 134 155 144 150 144 145 144 133 147 149 140 116 133 124 140 109 120 158 135 140 124 140 168 98 87 146 96 150 164 160 159 163 173
167 129 153 171 152 160 165 124 161 168 130 158 175 138 141 143 143 158 143 141 113 129 76 135 142 141 138 131 122 138 161 124 115 137 141 105 87 106 131 142 160 181 150
163 171 125 167 147 164 96 166 155 164 139 98 99 128 126 151 138 144 153 148 126 121 115 125 106 109 114 112 115 127 109 82 89 85 148 98 93 86 130 93 128 97 96
133 168 174 131 117 168 160 152 130 171 107 98 117 137 115 147 100 151 119 112 145 180 129 144 99 96 85 82 113 152 81 123 154 134 151 153 91 99 87 96 96 99 106
163 148 160 161 159 152 166 161 121 163 148 100 183 105 149 108 107 139 110 138 149 126 130 98 87 86 88 84 86 85 88 90 101 110 122 91 85 98 133 122 165 91 187
145 168 147 157 161 155 153 161 148 129 130 139 114 163 113 146 155 126 113 109 97 103 100 90 86 89 79 88 84 87 86 84 83 87 90 97 101 89 98 86 186 181 193
162 169 154 166 160 174 169 183 156 165 147 99 158 174 198 182 111 101 122 160 97 101 97 87 87 85 87 82 84 153 80 161 89 144 106 103 80 108 166 105 160 196 111
175 171 165 172 168 182 184 182 168 170 173 137 118 253 249 104 102 102 94 96 95 101 92 85 86 82 78 84 83 164 80 82 84 172 162 171 117 107 86 124 119 109 185
166 184 181 176 176 176 174 179 177 170 155 100 144 234 184 110 102 82 98 101 103 103 96 88 84 81 94 91 87 124 220 148 141 210 127 140 126 113 207 98 106 229 117
176 177 147 162 183 175 180 212 182 155 170 148 101 102 105 106 100 75 96 92 87 89 90 90 91 95 87 87 90 95 91 91 126 191 234 123 113 139 107 111 111 128 101
171 162 232 168 180 89 236 236 222 217 203 190 102 95 185 99 92 93 97 93 181 194 100 93 96 101 95 87 98 78 90 97 113 156 126 199 127 124 123 115 111 113 117
231 209 211 219 237 223 222 209 272 196 191 191 183 163 101 185 101 96 104 90 102 104 102 201 89 92 92 100 95 97 97 219 225 222 230 197 93 127 125 123 91 117 113
229 225 236 228 228 230 225 211 201 179 182 191 180 173 172 105 102 187 140 95 92 97 88 89 92 89 93 94 95 94 88 143 209 167 210 212 134 126 89 121 122 121 103
217 227 225 223 223 224 228 243 194 175 174 179 197 187 187 96 96 119 101 103 104 107 93 96 100 82 93 91 91 91 100 193 111 113 113 118 119 92 123 104 87 108 111
217 220 222 224 210 221 228 191 222 224 232 235 199 212 173 161 163 235 198 98 110 198 110 90 104 173 99 103 100 96 100 175 193 196 164 171 126 116 152 122 111 108 130
203 215 216 216 220 216 214 207 229 216 229 236 228 230 247 251 202 233 225 231 225 215 216 226 218 102 98 154 110 101 189 192 196 195 193 127 184 104 120 112 97 192 188
213 204 216 214 211 215 219 206 202 217 218 209 210 215 222 236 237 243 235 230 228 218 204 221 221 155 189 97 148 199 207 206 199 139 189 140 102 110 98 150 190 186 129
201 207 221 216 197 217 231 219 213 228 215 229 209 207 115 234 251 229 239 238 226 228 225 219 214 213 223 243 214 216 218 230 204 149 162 193 193 189 182 182 189 182 182
220 217 219 217 199 209 210 211 218 211 216 211 225 232 225 211 84 238 242 233 247 245 229 221 113 208 232 233 227 86 96 104 232 222 149 224 219 212 167 204 195 190 196
220 220 217 219 217 217 211 208 208 220 215 217 213 211 189 213 219 233 219 192 218 250 240 237 227 208 190 96 89 101 233 234 228 223 224 224 215 227 222 224 220 212 200
Wind_Speed
38 41 47 46 42 30 39 32 40 40 45 41 42 39 36 38 38 35 37 37 41 41 41 40 42 43 32 28 31 36 29 41 42 42 40 42 43 44 44 46 46 51 53
48 47 42 47 38 45 45 48 26 40 49 34 50 43 47 46 46 44 45 45 44 43 44 45 38 30 31 33 42 8 5 7 43 41 43 39 46 47 23 38 51 55 37
52 54 56 51 40 24 29 51 52 53 53 53 52 47 38 49 49 47 47 49 46 45 45 44 45 31 32 39 49 20 43 43 46 47 47 46 47 34 42 36 54 36 39
56 52 54 57 47 46 25 36 55 47 55 55 53 34 50 51 52 22 41 39 24 47 40 29 37 44 47 49 43 32 40 25 44 48 52 48 49 53 41 43 46 53 59
58 62 58 62 52 35 51 50 36 29 46 28 38 50 53 55 55 33 50 51 46 44 53 53 40 50 37 16 24 23 45 44 36 36 45 53 41 45 57 36 48 25 65
64 53 62 54 67 40 60 59 62 36 32 32 33 26 37 60 53 57 57 41 36 37 33 9 35 29 48 53 29 51 52 29 47 49 60 58 19 21 23 23 25 28 27
61 63 62 65 64 54 63 68 62 58 53 68 60 65 61 63 61 50 61 62 57 28 49 33 49 27 34 64 40 46 40 48 68 20 19 54 21 57 65 62 62 65 76
63 47 68 65 71 64 70 51 71 69 49 66 67 52 61 60 58 71 61 57 28 43 13 52 51 51 47 42 31 47 65 39 31 50 53 29 18 29 45 54 64 77 49
66 65 50 67 72 70 34 73 72 73 66 37 37 40 39 72 53 60 71 65 40 35 30 38 25 26 28 28 30 41 27 19 20 19 57 27 23 16 45 26 45 32 31
66 68 68 55 56 70 75 64 57 73 44 42 46 59 42 64 33 71 39 33 63 83 45 59 21 19 16 18 30 63 21 45 67 52 62 68 24 36 22 31 32 35 39
74 71 71 72 76 79 75 78 53 80 70 44 74 42 58 40 36 57 32 51 64 45 48 24 19 20 20 21 21 22 24 27 32 41 50 27 22 34 52 45 75 32 81
63 75 74 76 78 76 80 75 67 62 59 65 49 80 46 66 69 55 35 34 31 30 27 23 24 23 23 24 23 24 27 29 22 29 36 40 40 31 36 26 81 83 84
76 80 76 80 80 80 81 76 79 75 74 44 68 77 90 79 45 37 46 69 31 33 30 26 27 27 28 26 27 74 27 63 31 57 44 45 26 47 68 39 70 83 49
81 79 81 79 80 78 77 80 80 83 75 65 48 65 66 43 43 40 33 35 35 39 32 30 32 30 27 30 30 75 30 34 31 87 64 84 53 50 32 49 56 53 68
83 84 79 80 83 83 83 79 80 83 65 50 52 64 59 49 45 29 40 40 43 42 37 36 36 34 37 36 35 51 90 62 61 90 60 63 55 54 84 50 55 76 57
82 84 72 74 81 82 85 77 80 72 63 53 51 52 52 50 45 27 38 37 35 36 36 40 40 42 35 37 42 47 43 46 54 70 82 57 56 63 49 57 57 57 52
80 78 71 78 82 40 70 69 72 66 71 73 55 48 74 48 43 45 46 42 61 64 47 46 47 47 43 39 46 29 45 52 55 63 61 69 61 61 61 59 59 59 63
76 81 83 81 65 72 70 71 49 70 75 74 76 76 51 75 54 49 51 44 50 49 48 67 39 41 43 49 46 49 51 61 60 60 62 59 47 65 64 63 50 64 64
70 69 59 65 70 66 67 70 71 75 76 75 79 82 81 56 51 77 64 51 47 50 43 44 44 40 46 48 50 51 41 64 59 62 61 63 67 67 50 65 67 68 61
74 68 66 62 65 66 63 49 73 78 79 80 76 81 73 47 47 58 54 56 59 61 47 53 57 36 49 49 49 51 62 65 66 67 68 68 69 54 69 57 55 68 69
75 72 68 63 67 64 65 63 59 60 57 57 75 72 85 73 74 66 66 51 68 74 69 45 61 77 60 63 60 57 64 68 69 66 67 64 72 70 59 67 67 66 65
78 77 73 69 65 67 70 66 57 59 53 54 57 57 53 54 54 66 69 70 71 71 71 67 69 59 57 66 67 66 76 73 70 70 70 72 76 59 71 69 59 66 66
80 81 79 74 69 68 70 67 69 59 53 60 65 64 59 55 57 60 65 66 69 72 73 69 68 62 67 56 70 74 76 75 75 62 77 63 68 71 58 66 71 71 70
82 83 82 79 69 70 71 68 73 68 62 61 68 68 43 56 47 61 59 63 69 69 69 70 71 71 71 73 74 75 76 76 76 73 68 77 78 81 82 81 78 77 77
84 82 84 81 75 74 71 71 75 70 64 68 60 57 59 67 32 56 58 63 62 66 69 72 48 72 71 72 75 45 62 70 77 78 67 80 82 82 77 83 82 82 81
90 86 84 86 82 77 73 73 75 76 75 72 65 65 67 69 64 59 55 58 64 60 64 68 72 73 69 59 51 59 75 76 78 79 81 83 84 87 85 85 84 84 85
Wind_Direction
248 234 229 230 236 247 251 262 239 227 239 237 236 234 238 236 249 239 238 241 241 244 247 253 254 257 265 270 274 276 274 274 270 271 287 281 281 281 282 281 284 286 286
238 246 250 237 253 239 236 235 268 254 235 264 237 249 241 238 240 240 241 243 244 246 246 248 253 266 265 270 264 258 256 292 272 277 276 280 275 278 302 283 290 291 284
239 239 240 251 254 242 258 241 238 237 239 240 240 246 258 244 240 242 243 242 246 246 249 252 253 272 273 266 261 260 268 270 268 270 272 278 280 279 283 282 284 277 277
239 246 247 247 250 255 235 263 242 254 242 241 245 244 249 248 252 261 257 257 275 250 258 277 262 264 261 262 268 275 277 286 277 275 278 276 277 278 281 279 281 291 283
248 242 246 243 252 240 244 248 250 249 261 231 253 255 256 250 250 249 257 254 261 263 255 257 272 260 281 278 278 278 280 278 279 281 286 283 282 282 283 291 290 302 297
245 251 245 252 243 238 254 253 253 258 232 235 258 236 268 253 263 258 259 262 276 276 271 274 278 259 273 268 266 274 277 272 286 284 282 281 308 302 300 303 305 302 303
247 249 251 250 247 257 257 251 249 260 263 252 256 254 257 256 258 268 259 259 265 251 264 272 277 256 265 270 279 282 282 281 279 272 282 281 289 286 290 289 290 295 298
251 249 249 253 251 254 252 246 251 252 256 256 254 261 262 261 264 260 261 264 248 269 277 268 266 275 272 267 270 279 276 279 274 281 284 284 294 295 293 295 293 295 291
253 255 249 252 256 254 266 254 255 254 253 246 257 254 253 260 267 268 264 265 260 257 253 265 254 259 262 263 267 275 272 284 285 287 284 288 292 297 294 303 295 303 304
255 255 256 258 255 257 255 251 246 257 254 246 256 263 243 263 247 266 250 244 267 263 261 266 249 253 261 268 266 276 277 279 281 284 281 287 297 289 300 299 301 300 293
254 253 252 253 253 257 257 258 245 259 259 244 264 246 259 245 245 262 247 264 269 262 265 249 251 255 261 267 268 274 281 289 287 289 287 292 296 287 288 298 291 296 293
255 255 255 254 255 255 259 262 259 254 251 258 253 263 251 258 270 258 252 246 250 251 246 242 250 258 256 264 267 275 279 281 284 289 291 291 290 297 289 297 290 293 292
251 255 258 256 259 258 260 265 265 259 260 246 268 266 271 269 248 243 260 273 251 249 245 245 253 252 258 260 267 278 273 277 282 280 286 290 277 288 284 294 289 288 286
258 255 257 259 260 264 264 264 262 264 270 259 250 265 264 238 240 242 249 248 248 248 245 249 251 256 268 262 264 274 275 276 283 282 278 284 286 287 289 285 289 290 287
256 266 259 260 263 263 263 262 262 264 269 242 256 267 263 239 240 258 246 247 248 249 250 252 257 263 267 271 274 274 271 278 280 273 284 275 275 281 284 293 291 284 284
261 261 254 257 265 262 269 267 265 267 257 253 241 244 244 240 246 264 251 252 256 258 261 258 260 264 271 276 279 280 282 285 275 277 279 277 281 281 285 283 286 283 293
260 259 268 259 266 265 268 266 265 265 266 264 243 251 265 246 256 258 254 260 263 266 257 261 263 265 268 275 275 271 283 286 286 275 276 279 277 279 280 283 285 285 285
266 264 265 268 265 263 261 264 272 261 262 262 262 263 249 266 247 256 250 263 259 252 254 267 272 271 274 275 280 284 286 279 281 280 279 280 285 279 281 283 284 285 287
267 266 267 266 266 263 261 262 261 260 261 262 261 266 268 249 251 268 261 260 261 259 269 274 270 277 276 280 282 285 283 283 281 281 280 282 276 279 292 283 284 285 293
266 267 265 264 267 266 263 267 258 259 261 262 261 262 267 253 257 264 258 258 259 260 263 265 267 278 277 279 280 283 285 276 281 281 281 281 281 282 282 292 287 293 294
267 267 265 263 262 267 266 260 259 266 269 268 261 264 266 272 275 267 265 258 262 269 263 267 267 272 274 274 278 283 284 276 273 274 276 278 280 284 284 290 293 295 289
265 265 265 265 263 264 267 266 266 258 271 273 268 265 271 271 266 266 266 268 269 269 270 268 267 269 272 272 276 280 273 272 271 272 273 282 276 291 289 292 292 278 278
263 266 264 264 265 264 265 264 262 261 251 258 262 263 264 271 271 270 267 267 267 266 267 269 269 271 271 278 272 269 270 272 272 279 273 278 294 290 290 283 276 275 283
260 263 264 263 262 263 261 264 268 268 264 267 262 264 263 274 284 271 274 271 266 268 268 269 269 269 270 269 270 271 272 271 273 280 277 273 274 275 278 279 277 277 277
261 260 263 262 264 264 264 265 264 264 264 264 264 266 266 268 256 280 277 272 275 270 268 268 271 271 271 271 273 277 285 282 272 273 279 274 274 274 278 275 276 278 277
260 257 256 260 259 259 259 261 265 265 266 267 264 264 268 269 273 281 282 273 270 276 274 271 270 272 274 279 280 283 272 272 272 273 274 275 276 276 274 274 274 275 277